Time,TemperatureF,DewpointF,PressureIn,WindDirection,WindDirectionDegrees,WindSpeedMPH,WindSpeedGustMPH,Humidity,HourlyPrecipIn,Conditions,Clouds,dailyrainin,SoftwareType,DateUTC
2013-01-09 00:04:00,33.3,12.1,23.24,East,79,6.7,8.7,41,0.00,,---,0.00,VWS V14.00,2013-01-09 07:04:00,
2013-01-09 00:09:00,33.3,12.1,23.24,NNE,22,10.5,10.5,41,0.00,,---,0.00,VWS V14.00,2013-01-09 07:09:00,
2013-01-09 00:14:00,33.1,12.0,23.24,East,82,8.1,8.3,41,0.00,,---,0.00,VWS V14.00,2013-01-09 07:14:00,
2013-01-09 00:19:00,32.7,11.6,23.24,SSE,155,9.6,9.6,41,0.00,,---,0.00,VWS V14.00,2013-01-09 07:19:00,
2013-01-09 00:24:00,32.4,11.3,23.24,SSE,154,6.3,6.3,41,0.00,,---,0.00,VWS V14.00,2013-01-09 07:24:00,
2013-01-09 00:29:00,32.4,11.3,23.24,ESE,123,3.6,3.6,41,0.00,,---,0.00,VWS V14.00,2013-01-09 07:29:00,
2013-01-09 00:34:00,32.0,11.0,23.24,South,185,6.3,6.3,41,0.00,,---,0.00,VWS V14.00,2013-01-09 07:34:00,
2013-01-09 00:39:00,32.2,11.1,23.24,SSE,160,3.1,7.2,41,0.00,,---,0.00,VWS V14.00,2013-01-09 07:39:00,
2013-01-09 00:44:00,32.2,11.1,23.24,SE,137,7.6,7.6,41,0.00,,---,0.00,VWS V14.00,2013-01-09 07:44:00,
2013-01-09 00:49:00,32.5,11.5,23.24,SSE,148,5.8,9.6,41,0.00,,---,0.00,VWS V14.00,2013-01-09 07:49:00,
2013-01-09 00:54:00,32.5,11.5,23.24,SE,126,4.0,5.8,41,0.00,,---,0.00,VWS V14.00,2013-01-09 07:54:00,
2013-01-09 00:59:00,32.5,11.5,23.24,South,178,5.8,6.3,41,0.00,,---,0.00,VWS V14.00,2013-01-09 07:59:00,
2013-01-09 01:05:00,32.7,11.6,23.24,SSW,192,4.0,4.9,41,0.00,,---,0.00,VWS V14.00,2013-01-09 08:05:00,
2013-01-09 01:10:00,32.5,11.5,23.24,East,83,6.3,6.3,41,0.00,,---,0.00,VWS V14.00,2013-01-09 08:10:00,
2013-01-09 01:15:00,32.2,11.1,23.24,West,277,4.0,6.3,41,0.00,,---,0.00,VWS V14.00,2013-01-09 08:15:00,
2013-01-09 01:20:00,32.0,11.0,23.24,SW,220,0.0,0.0,41,0.00,,---,0.00,VWS V14.00,2013-01-09 08:20:00,
2013-01-09 01:25:00,31.3,10.3,23.24,SW,221,0.0,0.0,41,0.00,,---,0.00,VWS V14.00,2013-01-09 08:25:00,
2013-01-09 01:30:00,30.9,10.0,23.24,SW,230,0.0,2.2,41,0.00,,---,0.00,VWS V14.00,2013-01-09 08:30:00,
2013-01-09 01:35:00,30.6,9.7,23.24,NE,52,0.0,0.0,41,0.00,,---,0.00,VWS V14.00,2013-01-09 08:35:00,
2013-01-09 01:40:00,30.2,9.4,23.24,North,0,0.0,0.0,41,0.00,,---,0.00,VWS V14.00,2013-01-09 08:40:00,
2013-01-09 01:45:00,30.0,9.2,23.24,SE,127,0.0,2.7,41,0.00,,---,0.00,VWS V14.00,2013-01-09 08:45:00,
2013-01-09 01:50:00,30.4,9.5,23.24,SE,141,4.0,4.0,41,0.00,,---,0.00,VWS V14.00,2013-01-09 08:50:00,
2013-01-09 01:55:00,30.9,10.0,23.24,East,86,2.7,2.7,41,0.00,,---,0.00,VWS V14.00,2013-01-09 08:55:00,
2013-01-09 02:00:00,31.1,10.2,23.24,ENE,75,3.6,6.3,41,0.00,,---,0.00,VWS V14.00,2013-01-09 09:00:00,
2013-01-09 02:05:00,31.6,10.6,23.24,SE,136,4.0,5.8,41,0.00,,---,0.00,VWS V14.00,2013-01-09 09:05:00,
2013-01-09 02:10:00,32.2,11.1,23.24,SSE,156,4.0,8.1,41,0.00,,---,0.00,VWS V14.00,2013-01-09 09:10:00,
2013-01-09 02:15:00,32.5,11.5,23.24,East,91,4.0,10.5,41,0.00,,---,0.00,VWS V14.00,2013-01-09 09:15:00,
2013-01-09 02:20:00,32.7,11.6,23.24,East,83,4.0,4.9,41,0.00,,---,0.00,VWS V14.00,2013-01-09 09:20:00,
2013-01-09 02:25:00,32.5,11.5,23.24,North,3,3.1,5.4,41,0.00,,---,0.00,VWS V14.00,2013-01-09 09:25:00,
2013-01-09 02:30:00,32.4,11.3,23.24,SE,133,2.7,2.7,41,0.00,,---,0.00,VWS V14.00,2013-01-09 09:30:00,
2013-01-09 02:35:00,32.0,11.0,23.24,SSE,148,0.0,0.0,41,0.00,,---,0.00,VWS V14.00,2013-01-09 09:35:00,
2013-01-09 02:40:00,31.5,10.5,23.24,SE,143,0.0,2.7,41,0.00,,---,0.00,VWS V14.00,2013-01-09 09:40:00,
2013-01-09 02:45:00,30.9,10.0,23.24,ESE,111,0.0,2.7,41,0.00,,---,0.00,VWS V14.00,2013-01-09 09:45:00,
2013-01-09 02:50:00,30.2,9.4,23.24,NE,52,3.6,3.6,41,0.00,,---,0.00,VWS V14.00,2013-01-09 09:50:00,
2013-01-09 02:56:00,30.2,9.4,23.24,North,353,2.2,4.9,41,0.00,,---,0.00,VWS V14.00,2013-01-09 09:56:00,
2013-01-09 03:01:00,30.7,9.8,23.24,NE,44,4.0,5.4,41,0.00,,---,0.00,VWS V14.00,2013-01-09 10:01:00,
2013-01-09 03:06:00,30.9,10.0,23.24,South,190,4.0,4.0,41,0.00,,---,0.00,VWS V14.00,2013-01-09 10:06:00,
2013-01-09 03:11:00,31.3,10.3,23.24,NE,50,8.1,8.1,41,0.00,,---,0.00,VWS V14.00,2013-01-09 10:11:00,
2013-01-09 03:16:00,31.5,10.5,23.24,East,99,6.3,7.2,41,0.00,,---,0.00,VWS V14.00,2013-01-09 10:16:00,
2013-01-09 03:21:00,31.6,10.6,23.24,East,93,4.0,8.7,41,0.00,,---,0.00,VWS V14.00,2013-01-09 10:21:00,
2013-01-09 03:26:00,32.2,11.1,23.24,ENE,76,8.7,8.7,41,0.00,,---,0.00,VWS V14.00,2013-01-09 10:26:00,
2013-01-09 03:31:00,32.2,11.1,23.24,East,92,2.7,4.0,41,0.00,,---,0.00,VWS V14.00,2013-01-09 10:31:00,
2013-01-09 03:36:00,32.2,11.1,23.24,ENE,68,5.4,5.4,41,0.00,,---,0.00,VWS V14.00,2013-01-09 10:36:00,
2013-01-09 03:41:00,32.2,11.1,23.24,ESE,119,8.3,8.3,41,0.00,,---,0.00,VWS V14.00,2013-01-09 10:41:00,
2013-01-09 03:46:00,32.5,11.5,23.24,ESE,112,6.3,6.3,41,0.00,,---,0.00,VWS V14.00,2013-01-09 10:46:00,
2013-01-09 03:51:00,32.7,11.6,23.24,ENE,58,4.9,6.3,41,0.00,,---,0.00,VWS V14.00,2013-01-09 10:51:00,
2013-01-09 03:56:00,32.7,11.6,23.24,NE,40,7.6,7.6,41,0.00,,---,0.00,VWS V14.00,2013-01-09 10:56:00,
2013-01-09 04:01:00,32.7,11.6,23.24,ESE,111,5.8,5.8,41,0.00,,---,0.00,VWS V14.00,2013-01-09 11:01:00,
2013-01-09 04:06:00,32.5,11.5,23.24,ESE,118,2.7,5.8,41,0.00,,---,0.00,VWS V14.00,2013-01-09 11:06:00,
2013-01-09 04:11:00,32.2,11.1,23.24,East,91,3.6,8.7,41,0.00,,---,0.00,VWS V14.00,2013-01-09 11:11:00,
2013-01-09 04:16:00,32.2,11.1,23.24,ESE,104,4.0,4.9,41,0.00,,---,0.00,VWS V14.00,2013-01-09 11:16:00,
2013-01-09 04:21:00,32.0,11.0,23.24,ESE,106,3.1,4.0,41,0.00,,---,0.00,VWS V14.00,2013-01-09 11:21:00,
2013-01-09 04:26:00,32.0,11.0,23.24,SE,134,2.7,6.3,41,0.00,,---,0.00,VWS V14.00,2013-01-09 11:26:00,
2013-01-09 04:31:00,31.8,10.8,23.24,East,82,4.0,4.9,41,0.00,,---,0.00,VWS V14.00,2013-01-09 11:31:00,
2013-01-09 04:36:00,31.3,10.3,23.24,South,182,3.6,3.6,41,0.00,,---,0.00,VWS V14.00,2013-01-09 11:36:00,
2013-01-09 04:41:00,31.1,10.2,23.24,ENE,59,0.0,3.1,41,0.00,,---,0.00,VWS V14.00,2013-01-09 11:41:00,
2013-01-09 04:46:00,30.7,9.8,23.24,ESE,106,0.0,0.0,41,0.00,,---,0.00,VWS V14.00,2013-01-09 11:46:00,
2013-01-09 04:52:00,30.2,9.4,23.24,ESE,106,0.0,0.0,41,0.00,,---,0.00,VWS V14.00,2013-01-09 11:52:00,
2013-01-09 04:57:00,29.8,9.0,23.24,SSE,167,0.0,3.6,41,0.00,,---,0.00,VWS V14.00,2013-01-09 11:57:00,
2013-01-09 05:02:00,29.5,8.7,23.24,ESE,103,5.4,5.4,41,0.00,,---,0.00,VWS V14.00,2013-01-09 12:02:00,
2013-01-09 05:07:00,29.8,9.0,23.24,ESE,123,3.6,4.9,41,0.00,,---,0.00,VWS V14.00,2013-01-09 12:07:00,
2013-01-09 05:12:00,30.0,9.2,23.24,East,97,2.2,2.2,41,0.00,,---,0.00,VWS V14.00,2013-01-09 12:12:00,
2013-01-09 05:17:00,30.0,9.2,23.24,East,99,5.4,6.3,41,0.00,,---,0.00,VWS V14.00,2013-01-09 12:17:00,
2013-01-09 05:22:00,30.6,9.7,23.24,East,96,3.6,3.6,41,0.00,,---,0.00,VWS V14.00,2013-01-09 12:22:00,
2013-01-09 05:27:00,30.7,9.8,23.24,SE,129,5.4,5.4,41,0.00,,---,0.00,VWS V14.00,2013-01-09 12:27:00,
2013-01-09 05:32:00,30.9,10.0,23.24,SE,144,0.0,3.1,41,0.00,,---,0.00,VWS V14.00,2013-01-09 12:32:00,
2013-01-09 05:37:00,30.6,9.7,23.24,SSE,168,2.7,2.7,41,0.00,,---,0.00,VWS V14.00,2013-01-09 12:37:00,
2013-01-09 05:42:00,30.2,9.4,23.24,SSE,166,3.1,4.0,41,0.00,,---,0.00,VWS V14.00,2013-01-09 12:42:00,
2013-01-09 05:47:00,29.8,9.0,23.24,ESE,104,5.4,5.8,41,0.00,,---,0.00,VWS V14.00,2013-01-09 12:47:00,
2013-01-09 05:52:00,29.7,8.9,23.24,ESE,119,3.6,4.9,41,0.00,,---,0.00,VWS V14.00,2013-01-09 12:52:00,
2013-01-09 05:57:00,29.5,8.7,23.24,SSE,149,3.1,5.4,41,0.00,,---,0.00,VWS V14.00,2013-01-09 12:57:00,
2013-01-09 06:02:00,29.3,8.5,23.24,East,96,4.0,4.9,41,0.00,,---,0.00,VWS V14.00,2013-01-09 13:02:00,
2013-01-09 06:07:00,29.3,8.5,23.24,SE,140,3.1,3.1,41,0.00,,---,0.00,VWS V14.00,2013-01-09 13:07:00,
2013-01-09 06:12:00,28.9,8.2,23.24,SSE,149,3.1,5.4,41,0.00,,---,0.00,VWS V14.00,2013-01-09 13:12:00,
2013-01-09 06:18:00,28.6,7.9,23.27,SSE,162,0.0,5.4,41,0.00,,---,0.00,VWS V14.00,2013-01-09 13:18:00,
2013-01-09 06:23:00,28.6,7.9,23.27,SE,136,3.1,3.6,41,0.00,,---,0.00,VWS V14.00,2013-01-09 13:23:00,
2013-01-09 06:28:00,28.4,7.7,23.27,East,94,4.0,4.9,41,0.00,,---,0.00,VWS V14.00,2013-01-09 13:28:00,
2013-01-09 06:33:00,28.4,7.7,23.27,East,79,5.8,5.8,41,0.00,,---,0.00,VWS V14.00,2013-01-09 13:33:00,
2013-01-09 06:38:00,28.4,7.7,23.27,SE,140,4.0,5.4,41,0.00,,---,0.00,VWS V14.00,2013-01-09 13:38:00,
2013-01-09 06:43:00,28.4,7.7,23.27,SE,139,2.7,3.1,41,0.00,,---,0.00,VWS V14.00,2013-01-09 13:43:00,
2013-01-09 06:48:00,28.2,7.6,23.27,SSE,152,3.6,3.6,41,0.00,,---,0.00,VWS V14.00,2013-01-09 13:48:00,
2013-01-09 06:53:00,28.0,7.4,23.27,SSE,147,3.1,3.6,41,0.00,,---,0.00,VWS V14.00,2013-01-09 13:53:00,
2013-01-09 06:58:00,27.9,7.2,23.30,ESE,114,2.7,2.7,41,0.00,,---,0.00,VWS V14.00,2013-01-09 13:58:00,
2013-01-09 07:03:00,27.7,7.1,23.30,SSE,156,4.0,4.0,41,0.00,,---,0.00,VWS V14.00,2013-01-09 14:03:00,
2013-01-09 07:08:00,27.5,6.9,23.30,SSE,164,3.6,3.6,41,0.00,,---,0.00,VWS V14.00,2013-01-09 14:08:00,
2013-01-09 07:13:00,27.1,6.6,23.30,East,99,4.9,4.9,41,0.00,,---,0.00,VWS V14.00,2013-01-09 14:13:00,
2013-01-09 07:18:00,27.1,6.6,23.30,East,83,0.0,2.7,41,0.00,,---,0.00,VWS V14.00,2013-01-09 14:18:00,
2013-01-09 07:23:00,27.0,6.4,23.30,South,190,3.1,4.0,41,0.00,,---,0.00,VWS V14.00,2013-01-09 14:23:00,
2013-01-09 07:28:00,26.8,6.2,23.30,ESE,104,2.2,2.7,41,0.00,,---,0.00,VWS V14.00,2013-01-09 14:28:00,
2013-01-09 07:34:00,26.6,6.6,23.30,ESE,111,3.1,3.1,42,0.00,,---,0.00,VWS V14.00,2013-01-09 14:34:00,
2013-01-09 07:39:00,26.8,6.2,23.30,East,87,2.2,4.0,41,0.00,,---,0.00,VWS V14.00,2013-01-09 14:39:00,
2013-01-09 07:44:00,26.8,6.2,23.30,ESE,106,2.7,4.0,41,0.00,,---,0.00,VWS V14.00,2013-01-09 14:44:00,
2013-01-09 07:49:00,26.8,6.2,23.30,NE,34,2.2,2.7,41,0.00,,---,0.00,VWS V14.00,2013-01-09 14:49:00,
2013-01-09 07:54:00,26.6,6.6,23.30,East,99,0.0,0.0,42,0.00,,---,0.00,VWS V14.00,2013-01-09 14:54:00,
2013-01-09 07:59:00,26.4,6.4,23.30,ESE,119,0.0,0.0,42,0.00,,---,0.00,VWS V14.00,2013-01-09 14:59:00,
2013-01-09 08:04:00,26.4,6.4,23.30,East,91,4.0,4.0,42,0.00,,---,0.00,VWS V14.00,2013-01-09 15:04:00,
2013-01-09 08:09:00,26.8,6.2,23.30,SSE,155,3.6,3.6,41,0.00,,---,0.00,VWS V14.00,2013-01-09 15:09:00,
2013-01-09 08:14:00,27.1,6.6,23.33,SW,220,0.0,0.0,41,0.00,,---,0.00,VWS V14.00,2013-01-09 15:14:00,
2013-01-09 08:19:00,27.1,6.6,23.33,SW,221,0.0,0.0,41,0.00,,---,0.00,VWS V14.00,2013-01-09 15:19:00,
2013-01-09 08:24:00,27.1,6.6,23.33,SE,146,2.7,3.6,41,0.00,,---,0.00,VWS V14.00,2013-01-09 15:24:00,
2013-01-09 08:29:00,27.5,6.9,23.33,ESE,109,0.0,2.2,41,0.00,,---,0.00,VWS V14.00,2013-01-09 15:29:00,
2013-01-09 08:34:00,27.7,7.1,23.33,SE,125,0.0,0.0,41,0.00,,---,0.00,VWS V14.00,2013-01-09 15:34:00,
2013-01-09 08:39:00,27.9,7.2,23.33,SSW,198,2.7,2.7,41,0.00,,---,0.00,VWS V14.00,2013-01-09 15:39:00,
2013-01-09 08:44:00,28.2,7.6,23.30,ESE,118,2.7,3.1,41,0.00,,---,0.00,VWS V14.00,2013-01-09 15:44:00,
2013-01-09 08:49:00,28.9,8.2,23.30,ESE,109,0.0,0.0,41,0.00,,---,0.00,VWS V14.00,2013-01-09 15:49:00,
2013-01-09 08:54:00,29.5,8.7,23.30,NE,34,3.1,4.0,41,0.00,,---,0.00,VWS V14.00,2013-01-09 15:54:00,
2013-01-09 08:59:00,30.4,9.5,23.33,NE,34,3.1,3.6,41,0.00,,---,0.00,VWS V14.00,2013-01-09 15:59:00,
2013-01-09 09:05:00,31.1,10.2,23.33,East,89,3.1,6.3,41,0.00,,---,0.00,VWS V14.00,2013-01-09 16:05:00,
2013-01-09 09:10:00,32.0,11.0,23.33,East,101,0.0,3.1,41,0.00,,---,0.00,VWS V14.00,2013-01-09 16:10:00,
2013-01-09 09:15:00,32.7,11.6,23.33,East,87,0.0,2.2,41,0.00,,---,0.00,VWS V14.00,2013-01-09 16:15:00,
2013-01-09 09:20:00,33.4,12.3,23.33,East,101,5.4,5.4,41,0.00,,---,0.00,VWS V14.00,2013-01-09 16:20:00,
2013-01-09 09:25:00,34.2,12.4,23.33,SE,133,4.0,4.0,40,0.00,,---,0.00,VWS V14.00,2013-01-09 16:25:00,
2013-01-09 09:30:00,34.9,13.0,23.33,ESE,102,3.1,5.4,40,0.00,,---,0.00,VWS V14.00,2013-01-09 16:30:00,
2013-01-09 09:35:00,35.6,13.7,23.33,SE,132,4.0,4.9,40,0.00,,---,0.00,VWS V14.00,2013-01-09 16:35:00,
2013-01-09 09:40:00,36.1,14.2,23.33,East,94,3.6,7.6,40,0.00,,---,0.00,VWS V14.00,2013-01-09 16:40:00,
2013-01-09 09:45:00,36.5,14.5,23.33,SSE,166,3.1,3.6,40,0.00,,---,0.00,VWS V14.00,2013-01-09 16:45:00,
2013-01-09 09:50:00,37.4,14.7,23.33,ESE,114,0.0,0.0,39,0.00,,---,0.00,VWS V14.00,2013-01-09 16:50:00,
2013-01-09 09:55:00,38.1,15.4,23.33,NNE,14,4.0,4.0,39,0.00,,---,0.00,VWS V14.00,2013-01-09 16:55:00,
2013-01-09 10:00:00,38.5,15.7,23.33,SE,142,0.0,0.0,39,0.00,,---,0.00,VWS V14.00,2013-01-09 17:00:00,
2013-01-09 10:05:00,39.0,16.2,23.33,East,83,0.0,0.0,39,0.00,,---,0.00,VWS V14.00,2013-01-09 17:05:00,
2013-01-09 10:10:00,39.4,16.5,23.33,ESE,113,4.0,4.0,39,0.00,,---,0.00,VWS V14.00,2013-01-09 17:10:00,
2013-01-09 10:15:00,39.4,16.5,23.33,NE,49,3.1,3.1,39,0.00,,---,0.00,VWS V14.00,2013-01-09 17:15:00,
2013-01-09 10:20:00,39.7,16.8,23.33,ESE,109,2.7,2.7,39,0.00,,---,0.00,VWS V14.00,2013-01-09 17:20:00,
2013-01-09 10:25:00,40.3,17.3,23.33,ESE,104,3.1,6.3,39,0.00,,---,0.00,VWS V14.00,2013-01-09 17:25:00,
2013-01-09 10:30:00,41.0,18.0,23.33,East,99,5.4,5.4,39,0.00,,---,0.00,VWS V14.00,2013-01-09 17:30:00,
2013-01-09 10:35:00,41.0,18.0,23.33,NE,37,4.0,7.6,39,0.00,,---,0.00,VWS V14.00,2013-01-09 17:35:00,
2013-01-09 10:40:00,41.0,18.0,23.33,ESE,106,7.6,7.6,39,0.00,,---,0.00,VWS V14.00,2013-01-09 17:40:00,
2013-01-09 10:45:00,41.5,18.4,23.33,East,97,3.1,4.9,39,0.00,,---,0.00,VWS V14.00,2013-01-09 17:45:00,
2013-01-09 10:50:00,42.8,19.0,23.33,SSE,154,4.0,5.8,38,0.00,,---,0.00,VWS V14.00,2013-01-09 17:50:00,
2013-01-09 10:55:00,43.3,19.5,23.33,ENE,62,4.0,4.0,38,0.00,,---,0.00,VWS V14.00,2013-01-09 17:55:00,
2013-01-09 11:00:00,43.7,19.8,23.33,ENE,76,3.1,4.0,38,0.00,,---,0.00,VWS V14.00,2013-01-09 18:00:00,
2013-01-09 11:05:00,44.1,20.1,23.33,SE,126,3.6,4.9,38,0.00,,---,0.00,VWS V14.00,2013-01-09 18:05:00,
2013-01-09 11:10:00,44.4,20.4,23.33,NE,52,4.0,4.0,38,0.00,,---,0.00,VWS V14.00,2013-01-09 18:10:00,
2013-01-09 11:16:00,44.8,20.7,23.33,SE,138,0.0,0.0,38,0.00,,---,0.00,VWS V14.00,2013-01-09 18:16:00,
2013-01-09 11:21:00,45.5,21.4,23.33,ESE,110,4.9,4.9,38,0.00,,---,0.00,VWS V14.00,2013-01-09 18:21:00,
2013-01-09 11:26:00,46.2,22.0,23.33,East,89,2.2,3.1,38,0.00,,---,0.00,VWS V14.00,2013-01-09 18:26:00,
2013-01-09 11:31:00,46.0,21.9,23.30,ESE,109,3.6,4.9,38,0.00,,---,0.00,VWS V14.00,2013-01-09 18:31:00,
2013-01-09 11:36:00,45.5,21.4,23.30,East,95,3.6,6.3,38,0.00,,---,0.00,VWS V14.00,2013-01-09 18:36:00,
2013-01-09 11:41:00,45.3,21.2,23.30,ESE,107,4.5,4.5,38,0.00,,---,0.00,VWS V14.00,2013-01-09 18:41:00,
2013-01-09 11:42:00,45.3,21.2,23.30,SSE,147,3.1,4.9,38,0.00,,---,0.00,VWS V14.00,2013-01-09 18:42:00,
2013-01-09 11:44:00,45.9,21.7,23.30,ESE,102,4.0,4.0,38,0.00,,---,0.00,VWS V14.00,2013-01-09 18:44:00,
2013-01-09 11:45:00,46.0,21.9,23.30,ESE,111,4.5,5.8,38,0.00,,---,0.00,VWS V14.00,2013-01-09 18:45:00,
2013-01-09 11:48:00,46.0,21.9,23.30,NE,35,3.1,5.4,38,0.00,,---,0.00,VWS V14.00,2013-01-09 18:48:00,
2013-01-09 11:49:00,46.0,21.9,23.30,North,9,5.4,5.4,38,0.00,,---,0.00,VWS V14.00,2013-01-09 18:49:00,
2013-01-09 11:50:00,46.0,21.9,23.30,ENE,77,4.9,4.9,38,0.00,,---,0.00,VWS V14.00,2013-01-09 18:50:00,
2013-01-09 11:55:00,46.0,21.9,23.30,ESE,122,3.1,3.6,38,0.00,,---,0.00,VWS V14.00,2013-01-09 18:55:00,
2013-01-09 12:00:00,46.0,21.9,23.27,East,96,2.7,4.0,38,0.00,,---,0.00,VWS V14.00,2013-01-09 19:00:00,
2013-01-09 12:05:00,46.8,21.9,23.27,North,353,2.7,2.7,37,0.00,,---,0.00,VWS V14.00,2013-01-09 19:05:00,
2013-01-09 12:10:00,47.3,22.4,23.27,East,90,2.2,3.6,37,0.00,,---,0.00,VWS V14.00,2013-01-09 19:10:00,
2013-01-09 12:15:00,47.5,22.5,23.27,East,79,0.0,0.0,37,0.00,,---,0.00,VWS V14.00,2013-01-09 19:15:00,
2013-01-09 12:20:00,47.8,22.9,23.27,NNW,348,3.6,4.0,37,0.00,,---,0.00,VWS V14.00,2013-01-09 19:20:00,
2013-01-09 12:25:00,47.8,22.9,23.27,North,9,2.7,4.0,37,0.00,,---,0.00,VWS V14.00,2013-01-09 19:25:00,
2013-01-09 12:31:00,48.0,23.0,23.27,East,83,0.0,2.7,37,0.00,,---,0.00,VWS V14.00,2013-01-09 19:31:00,
2013-01-09 12:36:00,47.8,22.9,23.27,ESE,114,3.6,6.3,37,0.00,,---,0.00,VWS V14.00,2013-01-09 19:36:00,
2013-01-09 12:41:00,47.7,22.7,23.27,NNE,25,2.7,4.0,37,0.00,,---,0.00,VWS V14.00,2013-01-09 19:41:00,
2013-01-09 12:46:00,48.0,23.0,23.27,NE,44,0.0,0.0,37,0.00,,---,0.00,VWS V14.00,2013-01-09 19:46:00,
2013-01-09 12:51:00,48.2,23.2,23.27,East,101,0.0,0.0,37,0.00,,---,0.00,VWS V14.00,2013-01-09 19:51:00,
2013-01-09 12:56:00,48.2,23.2,23.27,NE,52,0.0,2.2,37,0.00,,---,0.00,VWS V14.00,2013-01-09 19:56:00,
2013-01-09 13:01:00,48.2,23.2,23.24,East,93,4.0,4.0,37,0.00,,---,0.00,VWS V14.00,2013-01-09 20:01:00,
2013-01-09 13:06:00,48.6,23.5,23.24,SSE,153,3.6,3.6,37,0.00,,---,0.00,VWS V14.00,2013-01-09 20:06:00,
2013-01-09 13:11:00,48.6,23.5,23.24,ENE,57,0.0,0.0,37,0.00,,---,0.00,VWS V14.00,2013-01-09 20:11:00,
2013-01-09 13:17:00,48.7,23.6,23.24,ESE,106,0.0,0.0,37,0.00,,---,0.00,VWS V14.00,2013-01-09 20:17:00,
2013-01-09 13:22:00,48.7,23.6,23.24,ENE,67,2.7,2.7,37,0.00,,---,0.00,VWS V14.00,2013-01-09 20:22:00,
2013-01-09 13:27:00,48.6,23.5,23.24,ENE,71,2.7,3.1,37,0.00,,---,0.00,VWS V14.00,2013-01-09 20:27:00,
2013-01-09 13:32:00,48.4,23.3,23.24,SE,145,3.1,3.1,37,0.00,,---,0.00,VWS V14.00,2013-01-09 20:32:00,
2013-01-09 13:37:00,48.0,23.0,23.24,ESE,108,4.0,4.0,37,0.00,,---,0.00,VWS V14.00,2013-01-09 20:37:00,
2013-01-09 13:42:00,47.7,22.7,23.24,ESE,115,0.0,0.0,37,0.00,,---,0.00,VWS V14.00,2013-01-09 20:42:00,
2013-01-09 13:47:00,47.7,22.7,23.24,ENE,57,0.0,0.0,37,0.00,,---,0.00,VWS V14.00,2013-01-09 20:47:00,
2013-01-09 13:52:00,47.7,22.7,23.24,ESE,110,3.6,4.0,37,0.00,,---,0.00,VWS V14.00,2013-01-09 20:52:00,
2013-01-09 13:57:00,47.3,22.4,23.24,SSE,159,0.0,0.0,37,0.00,,---,0.00,VWS V14.00,2013-01-09 20:57:00,
2013-01-09 14:02:00,47.1,22.2,23.24,North,2,2.7,4.0,37,0.00,,---,0.00,VWS V14.00,2013-01-09 21:02:00,
2013-01-09 14:07:00,46.9,22.0,23.24,North,353,3.1,3.1,37,0.00,,---,0.00,VWS V14.00,2013-01-09 21:07:00,
2013-01-09 14:12:00,46.6,21.7,23.24,NE,44,3.1,3.1,37,0.00,,---,0.00,VWS V14.00,2013-01-09 21:12:00,
2013-01-09 14:17:00,46.4,21.6,23.24,East,95,3.1,4.0,37,0.00,,---,0.00,VWS V14.00,2013-01-09 21:17:00,
2013-01-09 14:22:00,46.0,21.9,23.24,North,357,2.2,2.7,38,0.00,,---,0.00,VWS V14.00,2013-01-09 21:22:00,
2013-01-09 14:27:00,46.0,21.9,23.24,North,9,2.7,5.8,38,0.00,,---,0.00,VWS V14.00,2013-01-09 21:27:00,
2013-01-09 14:32:00,46.2,22.0,23.21,North,7,0.0,2.2,38,0.00,,---,0.00,VWS V14.00,2013-01-09 21:32:00,
2013-01-09 14:38:00,46.4,21.6,23.21,NNE,21,2.7,4.0,37,0.00,,---,0.00,VWS V14.00,2013-01-09 21:38:00,
2013-01-09 14:43:00,46.6,21.7,23.21,North,353,0.0,2.2,37,0.00,,---,0.00,VWS V14.00,2013-01-09 21:43:00,
2013-01-09 14:48:00,46.8,21.9,23.21,ENE,63,0.0,0.0,37,0.00,,---,0.00,VWS V14.00,2013-01-09 21:48:00,
2013-01-09 14:53:00,46.6,21.7,23.21,North,9,5.4,5.4,37,0.00,,---,0.00,VWS V14.00,2013-01-09 21:53:00,
2013-01-09 14:58:00,46.2,22.0,23.21,NE,36,2.7,2.7,38,0.00,,---,0.00,VWS V14.00,2013-01-09 21:58:00,
2013-01-09 15:03:00,46.2,22.0,23.21,ESE,108,3.1,3.1,38,0.00,,---,0.00,VWS V14.00,2013-01-09 22:03:00,
2013-01-09 15:08:00,46.2,22.0,23.21,SSE,158,0.0,3.1,38,0.00,,---,0.00,VWS V14.00,2013-01-09 22:08:00,
2013-01-09 15:13:00,46.4,21.6,23.21,East,84,0.0,2.7,37,0.00,,---,0.00,VWS V14.00,2013-01-09 22:13:00,
2013-01-09 15:18:00,46.2,22.0,23.21,ESE,103,3.1,3.1,38,0.00,,---,0.00,VWS V14.00,2013-01-09 22:18:00,
2013-01-09 15:23:00,46.2,22.0,23.21,ESE,113,3.6,3.6,38,0.00,,---,0.00,VWS V14.00,2013-01-09 22:23:00,
2013-01-09 15:28:00,46.2,22.0,23.21,SE,144,2.2,3.1,38,0.00,,---,0.00,VWS V14.00,2013-01-09 22:28:00,
2013-01-09 15:33:00,46.2,22.0,23.21,North,0,2.2,2.2,38,0.00,,---,0.00,VWS V14.00,2013-01-09 22:33:00,
2013-01-09 15:38:00,46.2,22.0,23.21,North,357,0.0,0.0,38,0.00,,---,0.00,VWS V14.00,2013-01-09 22:38:00,
2013-01-09 15:43:00,46.0,21.9,23.21,ESE,102,0.0,0.0,38,0.00,,---,0.00,VWS V14.00,2013-01-09 22:43:00,
2013-01-09 15:48:00,45.9,21.7,23.21,SE,127,2.2,2.2,38,0.00,,---,0.00,VWS V14.00,2013-01-09 22:48:00,
2013-01-09 15:53:00,45.9,21.7,23.21,East,88,2.2,2.2,38,0.00,,---,0.00,VWS V14.00,2013-01-09 22:53:00,
2013-01-09 15:58:00,46.0,21.9,23.21,East,87,2.7,4.0,38,0.00,,---,0.00,VWS V14.00,2013-01-09 22:58:00,
2013-01-09 16:03:00,45.9,21.7,23.21,ENE,62,2.2,2.7,38,0.00,,---,0.00,VWS V14.00,2013-01-09 23:03:00,
2013-01-09 16:08:00,45.7,21.5,23.21,SSE,148,3.6,3.6,38,0.00,,---,0.00,VWS V14.00,2013-01-09 23:08:00,
2013-01-09 16:13:00,45.3,21.2,23.21,ENE,63,0.0,3.6,38,0.00,,---,0.00,VWS V14.00,2013-01-09 23:13:00,
2013-01-09 16:18:00,45.1,21.1,23.21,ESE,108,5.4,5.8,38,0.00,,---,0.00,VWS V14.00,2013-01-09 23:18:00,
2013-01-09 16:23:00,45.1,21.1,23.21,East,95,3.1,3.1,38,0.00,,---,0.00,VWS V14.00,2013-01-09 23:23:00,
2013-01-09 16:29:00,45.0,20.9,23.21,East,100,2.2,3.1,38,0.00,,---,0.00,VWS V14.00,2013-01-09 23:29:00,
2013-01-09 16:34:00,44.6,20.6,23.21,SE,135,4.0,4.0,38,0.00,,---,0.00,VWS V14.00,2013-01-09 23:34:00,
2013-01-09 16:39:00,44.2,20.3,23.21,ESE,109,3.1,4.0,38,0.00,,---,0.00,VWS V14.00,2013-01-09 23:39:00,
2013-01-09 16:44:00,43.9,19.9,23.21,ESE,111,2.7,3.1,38,0.00,,---,0.00,VWS V14.00,2013-01-09 23:44:00,
2013-01-09 16:49:00,43.3,19.5,23.21,East,96,2.7,5.4,38,0.00,,---,0.00,VWS V14.00,2013-01-09 23:49:00,
2013-01-09 16:54:00,43.0,19.1,23.21,East,97,3.1,4.0,38,0.00,,---,0.00,VWS V14.00,2013-01-09 23:54:00,
2013-01-09 16:59:00,42.6,19.4,23.21,ENE,58,0.0,0.0,39,0.00,,---,0.00,VWS V14.00,2013-01-09 23:59:00,
2013-01-09 17:04:00,41.9,18.8,23.21,ENE,58,0.0,0.0,39,0.00,,---,0.00,VWS V14.00,2013-01-10 00:04:00,
2013-01-09 17:09:00,41.2,18.1,23.21,ENE,58,0.0,0.0,39,0.00,,---,0.00,VWS V14.00,2013-01-10 00:09:00,
2013-01-09 17:14:00,40.3,17.3,23.21,ENE,58,0.0,0.0,39,0.00,,---,0.00,VWS V14.00,2013-01-10 00:14:00,
2013-01-09 17:19:00,39.4,16.5,23.21,ENE,58,0.0,0.0,39,0.00,,---,0.00,VWS V14.00,2013-01-10 00:19:00,
2013-01-09 17:24:00,38.7,15.9,23.21,ENE,58,0.0,0.0,39,0.00,,---,0.00,VWS V14.00,2013-01-10 00:24:00,
2013-01-09 17:29:00,37.8,15.0,23.21,ENE,58,0.0,0.0,39,0.00,,---,0.00,VWS V14.00,2013-01-10 00:29:00,
2013-01-09 17:34:00,36.9,14.8,23.21,ENE,58,0.0,0.0,40,0.00,,---,0.00,VWS V14.00,2013-01-10 00:34:00,
2013-01-09 17:39:00,36.1,14.2,23.21,ENE,58,0.0,0.0,40,0.00,,---,0.00,VWS V14.00,2013-01-10 00:39:00,
2013-01-09 17:44:00,35.4,13.5,23.21,ENE,58,0.0,0.0,40,0.00,,---,0.00,VWS V14.00,2013-01-10 00:44:00,
2013-01-09 17:49:00,34.9,13.0,23.21,ENE,58,0.0,0.0,40,0.00,,---,0.00,VWS V14.00,2013-01-10 00:49:00,
2013-01-09 17:54:00,34.2,12.4,23.21,ENE,58,0.0,0.0,40,0.00,,---,0.00,VWS V14.00,2013-01-10 00:54:00,
2013-01-09 17:59:00,33.6,12.4,23.21,ENE,58,0.0,0.0,41,0.00,,---,0.00,VWS V14.00,2013-01-10 00:59:00,
2013-01-09 18:04:00,33.1,12.0,23.21,ENE,58,0.0,0.0,41,0.00,,---,0.00,VWS V14.00,2013-01-10 01:04:00,
2013-01-09 18:09:00,32.5,11.5,23.21,ENE,58,0.0,0.0,41,0.00,,---,0.00,VWS V14.00,2013-01-10 01:09:00,
2013-01-09 18:14:00,32.2,11.1,23.21,ENE,58,0.0,0.0,41,0.00,,---,0.00,VWS V14.00,2013-01-10 01:14:00,
2013-01-09 18:19:00,31.6,10.6,23.21,ENE,58,0.0,0.0,41,0.00,,---,0.00,VWS V14.00,2013-01-10 01:19:00,
2013-01-09 18:25:00,31.3,10.3,23.21,ENE,58,0.0,0.0,41,0.00,,---,0.00,VWS V14.00,2013-01-10 01:25:00,
2013-01-09 18:30:00,30.9,10.0,23.21,ENE,58,0.0,0.0,41,0.00,,---,0.00,VWS V14.00,2013-01-10 01:30:00,
2013-01-09 18:35:00,30.6,9.7,23.21,ENE,58,0.0,0.0,41,0.00,,---,0.00,VWS V14.00,2013-01-10 01:35:00,
2013-01-09 18:40:00,30.4,9.5,23.21,ENE,58,0.0,0.0,41,0.00,,---,0.00,VWS V14.00,2013-01-10 01:40:00,
2013-01-09 18:45:00,30.0,9.2,23.21,ENE,58,0.0,0.0,41,0.00,,---,0.00,VWS V14.00,2013-01-10 01:45:00,
2013-01-09 18:50:00,29.8,9.0,23.21,ENE,58,0.0,0.0,41,0.00,,---,0.00,VWS V14.00,2013-01-10 01:50:00,
2013-01-09 18:55:00,29.5,8.7,23.21,ENE,58,0.0,0.0,41,0.00,,---,0.00,VWS V14.00,2013-01-10 01:55:00,
2013-01-09 19:00:00,29.5,8.7,23.21,ENE,58,0.0,0.0,41,0.00,,---,0.00,VWS V14.00,2013-01-10 02:00:00,
2013-01-09 19:05:00,29.1,8.4,23.21,ENE,58,0.0,0.0,41,0.00,,---,0.00,VWS V14.00,2013-01-10 02:05:00,
2013-01-09 19:10:00,28.9,8.2,23.21,ENE,58,0.0,0.0,41,0.00,,---,0.00,VWS V14.00,2013-01-10 02:10:00,
2013-01-09 19:15:00,28.8,8.0,23.21,ENE,58,0.0,0.0,41,0.00,,---,0.00,VWS V14.00,2013-01-10 02:15:00,
2013-01-09 19:20:00,28.4,7.7,23.21,ENE,58,0.0,0.0,41,0.00,,---,0.00,VWS V14.00,2013-01-10 02:20:00,
2013-01-09 19:25:00,28.2,7.6,23.21,ENE,58,0.0,0.0,41,0.00,,---,0.00,VWS V14.00,2013-01-10 02:25:00,
2013-01-09 19:30:00,27.9,7.2,23.21,ENE,58,0.0,0.0,41,0.00,,---,0.00,VWS V14.00,2013-01-10 02:30:00,
2013-01-09 19:35:00,27.9,7.2,23.21,ENE,58,0.0,0.0,41,0.00,,---,0.00,VWS V14.00,2013-01-10 02:35:00,
2013-01-09 19:40:00,27.5,6.9,23.21,ENE,58,0.0,0.0,41,0.00,,---,0.00,VWS V14.00,2013-01-10 02:40:00,
2013-01-09 19:45:00,27.3,6.7,23.21,ENE,58,0.0,0.0,41,0.00,,---,0.00,VWS V14.00,2013-01-10 02:45:00,
2013-01-09 19:51:00,27.1,6.6,23.21,ENE,58,0.0,0.0,41,0.00,,---,0.00,VWS V14.00,2013-01-10 02:51:00,
2013-01-09 19:56:00,27.0,6.4,23.21,ENE,58,0.0,0.0,41,0.00,,---,0.00,VWS V14.00,2013-01-10 02:56:00,
2013-01-09 20:01:00,26.8,6.2,23.18,ENE,58,0.0,0.0,41,0.00,,---,0.00,VWS V14.00,2013-01-10 03:01:00,
2013-01-09 20:06:00,26.6,6.6,23.18,ENE,58,0.0,0.0,42,0.00,,---,0.00,VWS V14.00,2013-01-10 03:06:00,
2013-01-09 20:11:00,26.4,6.4,23.18,ENE,58,0.0,0.0,42,0.00,,---,0.00,VWS V14.00,2013-01-10 03:11:00,
2013-01-09 20:16:00,26.2,6.3,23.18,ENE,58,0.0,0.0,42,0.00,,---,0.00,VWS V14.00,2013-01-10 03:16:00,
2013-01-09 20:21:00,26.1,6.1,23.18,ENE,58,0.0,0.0,42,0.00,,---,0.00,VWS V14.00,2013-01-10 03:21:00,
2013-01-09 20:26:00,26.1,6.1,23.18,ENE,58,0.0,0.0,42,0.00,,---,0.00,VWS V14.00,2013-01-10 03:26:00,
2013-01-09 20:31:00,25.9,6.0,23.18,ENE,58,0.0,0.0,42,0.00,,---,0.00,VWS V14.00,2013-01-10 03:31:00,
2013-01-09 20:36:00,25.7,5.8,23.18,ENE,58,0.0,0.0,42,0.00,,---,0.00,VWS V14.00,2013-01-10 03:36:00,
2013-01-09 20:41:00,25.5,5.6,23.18,ENE,58,0.0,0.0,42,0.00,,---,0.00,VWS V14.00,2013-01-10 03:41:00,
2013-01-09 20:46:00,25.3,5.5,23.18,ENE,58,0.0,0.0,42,0.00,,---,0.00,VWS V14.00,2013-01-10 03:46:00,
2013-01-09 20:51:00,25.3,5.5,23.18,ENE,58,0.0,0.0,42,0.00,,---,0.00,VWS V14.00,2013-01-10 03:51:00,
2013-01-09 20:56:00,25.2,5.3,23.18,ENE,58,0.0,0.0,42,0.00,,---,0.00,VWS V14.00,2013-01-10 03:56:00,
2013-01-09 21:01:00,25.0,5.1,23.18,ENE,58,0.0,0.0,42,0.00,,---,0.00,VWS V14.00,2013-01-10 04:01:00,
2013-01-09 21:06:00,24.8,5.0,23.18,ENE,58,0.0,0.0,42,0.00,,---,0.00,VWS V14.00,2013-01-10 04:06:00,
2013-01-09 21:11:00,24.6,4.8,23.18,ENE,58,0.0,0.0,42,0.00,,---,0.00,VWS V14.00,2013-01-10 04:11:00,
2013-01-09 21:17:00,24.4,4.7,23.18,ENE,58,0.0,0.0,42,0.00,,---,0.00,VWS V14.00,2013-01-10 04:17:00,
2013-01-09 21:22:00,24.4,4.7,23.18,ENE,58,0.0,0.0,42,0.00,,---,0.00,VWS V14.00,2013-01-10 04:22:00,
2013-01-09 21:27:00,24.3,4.5,23.18,ENE,58,0.0,0.0,42,0.00,,---,0.00,VWS V14.00,2013-01-10 04:27:00,
2013-01-09 21:32:00,24.1,4.3,23.18,ENE,58,0.0,0.0,42,0.00,,---,0.00,VWS V14.00,2013-01-10 04:32:00,
2013-01-09 21:37:00,23.7,4.0,23.18,ENE,58,0.0,0.0,42,0.00,,---,0.00,VWS V14.00,2013-01-10 04:37:00,
2013-01-09 21:42:00,23.7,4.0,23.18,ENE,58,0.0,0.0,42,0.00,,---,0.00,VWS V14.00,2013-01-10 04:42:00,
2013-01-09 21:47:00,23.5,3.8,23.18,ENE,58,0.0,0.0,42,0.00,,---,0.00,VWS V14.00,2013-01-10 04:47:00,
2013-01-09 21:52:00,23.4,3.7,23.18,ENE,58,0.0,0.0,42,0.00,,---,0.00,VWS V14.00,2013-01-10 04:52:00,
2013-01-09 21:57:00,23.4,3.7,23.18,ENE,58,0.0,0.0,42,0.00,,---,0.00,VWS V14.00,2013-01-10 04:57:00,
2013-01-09 22:00:00,23.2,3.5,23.18,ENE,58,0.0,0.0,42,0.00,,---,0.00,VWS V14.00,2013-01-10 05:00:00,
2013-01-09 22:01:00,23.2,3.5,23.18,ENE,58,0.0,0.0,42,0.00,,---,0.00,VWS V14.00,2013-01-10 05:01:00,
2013-01-09 22:03:00,23.2,3.5,23.18,ENE,58,0.0,0.0,42,0.00,,---,0.00,VWS V14.00,2013-01-10 05:03:00,
2013-01-09 22:08:00,23.0,3.8,23.18,ENE,58,0.0,0.0,43,0.00,,---,0.00,VWS V14.00,2013-01-10 05:08:00,
2013-01-09 22:13:00,22.8,3.7,23.18,ENE,58,0.0,0.0,43,0.00,,---,0.00,VWS V14.00,2013-01-10 05:13:00,
2013-01-09 22:18:00,22.8,3.7,23.15,ENE,58,0.0,0.0,43,0.00,,---,0.00,VWS V14.00,2013-01-10 05:18:00,
2013-01-09 22:23:00,22.6,3.5,23.15,ENE,58,0.0,0.0,43,0.00,,---,0.00,VWS V14.00,2013-01-10 05:23:00,
2013-01-09 22:28:00,22.6,3.5,23.15,ENE,58,0.0,0.0,43,0.00,,---,0.00,VWS V14.00,2013-01-10 05:28:00,
2013-01-09 22:33:00,22.5,3.4,23.15,ENE,58,0.0,0.0,43,0.00,,---,0.00,VWS V14.00,2013-01-10 05:33:00,
2013-01-09 22:38:00,22.1,3.0,23.15,ENE,58,0.0,0.0,43,0.00,,---,0.00,VWS V14.00,2013-01-10 05:38:00,
2013-01-09 22:43:00,22.1,3.0,23.15,ENE,58,0.0,0.0,43,0.00,,---,0.00,VWS V14.00,2013-01-10 05:43:00,
2013-01-09 22:48:00,21.9,2.9,23.15,ENE,58,0.0,0.0,43,0.00,,---,0.00,VWS V14.00,2013-01-10 05:48:00,
2013-01-09 22:53:00,21.7,2.7,23.15,ENE,58,0.0,0.0,43,0.00,,---,0.00,VWS V14.00,2013-01-10 05:53:00,
2013-01-09 22:58:00,21.7,2.7,23.15,ENE,58,0.0,0.0,43,0.00,,---,0.00,VWS V14.00,2013-01-10 05:58:00,
2013-01-09 23:03:00,21.6,2.5,23.15,ENE,58,0.0,0.0,43,0.00,,---,0.00,VWS V14.00,2013-01-10 06:03:00,
2013-01-09 23:09:00,21.4,2.4,23.15,ENE,58,0.0,0.0,43,0.00,,---,0.00,VWS V14.00,2013-01-10 06:09:00,
2013-01-09 23:14:00,21.4,2.4,23.15,ENE,58,0.0,0.0,43,0.00,,---,0.00,VWS V14.00,2013-01-10 06:14:00,
2013-01-09 23:19:00,21.4,2.4,23.15,ENE,58,0.0,0.0,43,0.00,,---,0.00,VWS V14.00,2013-01-10 06:19:00,
2013-01-09 23:24:00,21.2,2.2,23.15,ENE,58,0.0,0.0,43,0.00,,---,0.00,VWS V14.00,2013-01-10 06:24:00,
2013-01-09 23:29:00,21.2,2.2,23.15,ENE,58,0.0,0.0,43,0.00,,---,0.00,VWS V14.00,2013-01-10 06:29:00,
2013-01-09 23:34:00,21.2,2.2,23.15,ENE,58,0.0,0.0,43,0.00,,---,0.00,VWS V14.00,2013-01-10 06:34:00,
2013-01-09 23:39:00,21.0,2.0,23.15,ENE,58,0.0,0.0,43,0.00,,---,0.00,VWS V14.00,2013-01-10 06:39:00,
2013-01-09 23:44:00,21.2,2.2,23.15,ENE,58,0.0,0.0,43,0.00,,---,0.00,VWS V14.00,2013-01-10 06:44:00,
2013-01-09 23:49:00,21.2,2.2,23.15,ENE,58,0.0,0.0,43,0.00,,---,0.00,VWS V14.00,2013-01-10 06:49:00,
2013-01-09 23:54:00,21.2,2.2,23.15,ENE,58,0.0,0.0,43,0.00,,---,0.00,VWS V14.00,2013-01-10 06:54:00,
2013-01-09 23:59:00,21.2,2.2,23.15,ENE,58,0.0,0.0,43,0.00,,---,0.00,VWS V14.00,2013-01-10 06:59:00,